Weather History for Kahului, HI

Change the Weather History Date:

Saturday, November 24, 2012

  Actual Average Record
Temperature  
Mean Temperature 73 °F 75 °F  
Max Temperature 82 °F 83 °F 90 °F (1984)
Min Temperature 64 °F 67 °F 59 °F (1972)
Degree Days  
Heating Degree Days 0 0  
Month to date heating degree days 0 0  
Since 1 July heating degree days 0 0  
Cooling Degree Days 8 10  
Month to date cooling degree days 256 271  
Year to date cooling degree days 3598 3647  
Growing Degree Days 23 (Base 50)    
Moisture  
Dew Point 66 °F    
Average Humidity 77    
Maximum Humidity 90    
Minimum Humidity 63    
Precipitation  
Precipitation 0.00 in 0.09 in 1.57 in (1975)
Month to date precipitation 0.18 1.63  
Year to date precipitation 4.89 13.91  
Snow  
Snow 0.00 in - - ()
Month to date snowfall 0.0  
Since 1 July snowfall 0.0  
Since 1 September snowfall 0.0  
Snow Depth 0.00 in    
Sea Level Pressure  
Sea Level Pressure 29.99 in    
Wind  
Wind Speed 10 mph (NE)    
Max Wind Speed 23 mph    
Max Gust Speed 26 mph    
Visibility 10 miles    
Events      
T = Trace of Precipitation, MM = Missing Value Source: NWS Daily Summary

Daily Weather History Graph

Daily Weather History Graph

Search for Another Location

Airport:

Trip Planner

Search our weather history database for the weather conditions in past years. The results will help you decide how hot, cold, wet, or windy it might be!

Date:

Astronomy

Nov. 24, 2012 Rise Set
Actual Time 6:41 AM HST 5:43 PM HST
Civil Twilight 6:18 AM HST 6:06 PM HST
Nautical Twilight 5:51 AM HST 6:34 PM HST
Astronomical Twilight 5:24 AM HST 7:00 PM HST
Moon 3:16 PM HST (11/24) 3:29 AM HST (11/24)
Length of Visible Light 11h 48m
Length of Day
11h 01m
Waxing Gibbous, 88% of the Moon is Illuminated
Nov 24
Waxing Gibbous
Nov 28
Full
Dec 6
Last Quarter
Dec 12
New
Dec 19
First Quarter

Hourly Weather History & Observations

Time (HST) Temp. Heat Index Dew Point Humidity Pressure Visibility Wind Dir Wind Speed Gust Speed Precip Events Conditions
12:54 AM 72.0 °F - 68.0 °F 87% 29.99 in 10.0 mi North 9.2 mph - N/A   Clear
1:54 AM 69.1 °F - 66.0 °F 90% 29.98 in 10.0 mi North 4.6 mph - N/A   Clear
2:54 AM 66.0 °F - 62.1 °F 87% 29.96 in 10.0 mi Calm Calm - N/A   Clear
3:54 AM 66.0 °F - 62.1 °F 87% 29.96 in 10.0 mi ESE 3.5 mph - N/A   Clear
4:54 AM 64.9 °F - 61.0 °F 87% 29.96 in 10.0 mi ESE 3.5 mph - N/A   Clear
5:54 AM 64.0 °F - 60.1 °F 87% 29.99 in 10.0 mi Calm Calm - N/A   Clear
6:54 AM 64.0 °F - 61.0 °F 90% 30.01 in 10.0 mi East 4.6 mph - N/A   Clear
7:54 AM 72.0 °F - 64.0 °F 76% 30.02 in 10.0 mi NE 3.5 mph - N/A   Clear
8:54 AM 78.1 °F - 69.1 °F 74% 30.03 in 10.0 mi North 10.4 mph - N/A   Partly Cloudy
9:54 AM 81.0 °F 83.8 °F 68.0 °F 65% 30.02 in 10.0 mi NNE 15.0 mph - N/A   Partly Cloudy
10:54 AM 81.0 °F 83.8 °F 68.0 °F 65% 30.01 in 10.0 mi NNE 19.6 mph - N/A   Partly Cloudy
11:54 AM 82.0 °F 84.9 °F 68.0 °F 62% 29.99 in 10.0 mi NE 19.6 mph - N/A   Partly Cloudy
12:54 PM 81.0 °F 83.8 °F 68.0 °F 65% 29.97 in 10.0 mi NE 19.6 mph - N/A   Partly Cloudy
1:54 PM 82.0 °F 84.9 °F 68.0 °F 62% 29.94 in 10.0 mi NNE 21.9 mph - N/A   Partly Cloudy
2:54 PM 81.0 °F 83.8 °F 68.0 °F 65% 29.94 in 10.0 mi NNE 18.4 mph - N/A   Partly Cloudy
3:54 PM 80.1 °F 82.7 °F 68.0 °F 67% 29.94 in 10.0 mi NE 16.1 mph - N/A   Scattered Clouds
4:54 PM 78.1 °F - 66.9 °F 68% 29.95 in 10.0 mi NE 15.0 mph - N/A   Partly Cloudy
5:54 PM 75.9 °F - 66.9 °F 74% 29.97 in 10.0 mi NE 12.7 mph - N/A   Partly Cloudy
6:54 PM 73.9 °F - 68.0 °F 82% 29.98 in 10.0 mi NE 6.9 mph - N/A   Clear
7:54 PM 73.9 °F - 66.9 °F 79% 30.00 in 10.0 mi NNE 8.1 mph - N/A   Clear
8:54 PM 73.0 °F - 66.9 °F 81% 30.03 in 10.0 mi North 5.8 mph - N/A   Clear
9:54 PM 73.0 °F - 66.0 °F 79% 30.03 in 10.0 mi NE 6.9 mph - N/A   Clear
10:54 PM 73.0 °F - 66.9 °F 81% 30.02 in 10.0 mi NE 9.2 mph - N/A   Clear
11:54 PM 73.0 °F - 66.9 °F 81% 30.02 in 10.0 mi NE 5.8 mph - N/A   Clear